"Pseudo-MPEC" for 2009-017B = NORAD 34714 = Atlas 5 Centaur R/B

Created 2016 Jun 7 1:26:42 UT using Find_Orb

Astrometry:
2009-017B    tC2015 09 21.97164 00 01 07.36 +14 20 05.8          13.0 R D0520Y00
2009-017B    tC2015 09 21.97238 00 01 20.08 +14 21 33.4          12.9 R D0520Y00
2009-017B    tC2015 09 21.97295 00 01 29.75 +14 22 40.1          12.9 R D0520Y00
2009-017B    tC2015 10 08.97958 22 12 32.34 +08 05 41.9          12.8 R D0522Y00
2009-017B    tC2015 10 08.98072 22 12 49.28 +08 07 44.0          12.7 R D0522Y00
2009-017B    tC2015 10 08.98181 22 13 05.77 +08 09 41.6          12.8 R D0522Y00

Station data:
(Y00) SONEAR Observatory, Oliveira (S20.71513 W44.78496)  Brazil.   Observers
    C. Jacques, E. Pimentel, J. Barros.  Measurer C. Jacques.  0.28-m f/2.2
    astrograph + CCD.

Orbital elements:  2009-017B = NORAD 34714 = Atlas 5 Centaur R/B
   Perigee 2015 Sep 22.260899 +/- 0.00182 TT =  6:15:41 (JD 2457287.760899)
Epoch 2015 Sep 22.0 TT = JDT 2457287.5                        Find_Orb
M 251.76152 +/- 0.7                 (J2000 equatorial)
n 414.86765772 +/- 0.0492           Peri.  205.81280 +/- 0.16
a 38429.4161 +/- 3.04               Node   320.84561 +/- 0.21
e   0.8237466 +/- 0.00151           Incl.   19.70771 +/- 0.031
P1249.53m/0.868d           H 29.2   G  0.15   U 10.7  
q 6773.31453 +/- 57.5    Q 70085.5178 +/- 63.6
From 6 observations 2015 Sept. 21-Oct. 8; mean residual 1".030
Residuals in arcseconds: 
150921 Y00 .154- .238+    150921 Y00 .957- .652-    151008 Y00 1.87- .457-    
150921 Y00 .525+ .236+    151008 Y00 .375- .834-    151008 Y00 2.19+ 1.28+    

Ephemerides (geocentric):
Date (UTC) HH   RA              Dec         delta   r     elong  mag " sig PA
---- -- -- --  ------------   ------------  ------ ------ -----  --- ---- ---
2015 10 09 00  22 16 37.742   +05 45 53.38   61470 0.9994 140.4 13.8   47  37
2015 10 09 01  22 30 24.949   +06 54 42.61   65037 0.9994 143.8 13.8   21 123
2015 10 09 02  22 43 00.715   +07 56 00.50   67611 0.9995 146.9 13.8   40  83
2015 10 09 03  22 54 53.920   +08 52 16.93   69260 0.9995 149.8 13.8   46  72
2015 10 09 04  23 06 26.057   +09 45 16.73   70023 0.9995 152.5 13.8   39  60
2015 10 09 05  23 17 55.296   +10 36 20.16   69916 0.9995 155.2 13.7   23  28
2015 10 09 06  23 29 39.223   +11 26 34.96   68938 0.9995 157.8 13.6   31 126
2015 10 09 07  23 41 57.338   +12 17 04.65   67066 0.9994 160.5 13.4   80  99
2015 10 09 08  23 55 14.222   +13 08 55.76   64255 0.9994 163.2 13.2  156  91
2015 10 09 09  00 10 04.702   +14 03 25.75   60430 0.9994 165.9 13.0  268  87
2015 10 09 10  00 27 24.040   +15 02 13.26   55474 0.9993 168.4 12.7  437  86
2015 10 09 11  00 48 51.553   +16 07 31.38   49205 0.9993 169.8 12.4  714  85
2015 10 09 12  01 17 57.034   +17 22 09.76   41320 0.9992 167.8 12.1 1233  85
2015 10 09 13  02 04 10.549   +18 46 29.40   31272 0.9991 159.5 11.8 2489  87
2015 10 09 14  03 50 25.939   +19 15 04.29   17928 0.9990 136.1 11.3 8132  94
2015 10 09 15  15 01 33.104   -19 30 45.73    8477 0.9989  32.8 15?? 680'  91
2015 10 09 16  19 46 13.835   -07 12 52.81   24013 0.9989 101.0 13.0 3951  70
2015 10 09 17  20 49 00.783   -01 50 45.35   35784 0.9990 117.2 13.3 1337  67
2015 10 09 18  21 22 44.301   +01 08 26.85   44838 0.9991 125.9 13.5  603  65
2015 10 09 19  21 46 03.436   +03 11 33.74   52000 0.9991 131.9 13.7  290  61
2015 10 09 20  22 04 16.248   +04 46 05.31   57692 0.9991 136.5 13.8  131  56
2015 10 09 21  22 19 35.037   +06 03 52.18   62157 0.9992 140.4 13.8   45  41
2015 10 09 22  22 33 07.736   +07 11 01.96   65547 0.9992 143.7 13.9   16 128
2015 10 09 23  22 45 34.758   +08 11 10.44   67959 0.9992 146.8 13.9   32  80
2015 10 10 00  22 57 23.315   +09 06 37.56   69453 0.9992 149.6 13.8   37  67
2015 10 10 01  23 08 54.100   +09 59 02.68   70065 0.9992 152.4 13.8   29  49
2015 10 10 02  23 20 25.009   +10 49 42.98   69809 0.9992 155.0 13.7   20 171
2015 10 10 03  23 32 13.781   +11 39 44.67   68680 0.9992 157.7 13.6   46 111
2015 10 10 04  23 44 40.543   +12 30 10.92   66650 0.9992 160.4 13.4  101  96
2015 10 10 05  23 58 11.195   +13 22 08.95   63671 0.9992 163.2 13.2  184  90
2015 10 10 06  00 13 23.158   +14 16 58.14   59661 0.9991 166.0 13.0  305  87
2015 10 10 07  00 31 17.010   +15 16 20.54   54496 0.9991 168.6 12.7  490  85
2015 10 10 08  00 53 44.279   +16 22 33.38   47975 0.9990 170.0 12.4  801  85
2015 10 10 09  01 24 48.814   +17 38 20.52   39767 0.9990 167.4 12.1 1401  85
2015 10 10 10  02 16 14.433   +19 01 40.55   29257 0.9989 157.8 11.7 2956  88
2015 10 10 11  04 29 32.203   +18 25 42.81   15174 0.9987 128.0 11.1 192'  97
2015 10 10 12  16 53 38.888   -17 39 31.05   11186 0.9986  57.6 13?? 387'  81
2015 10 10 13  20 01 43.864   -05 52 29.84   26290 0.9987 104.2 13.1 3227  69
2015 10 10 14  20 56 27.052   -01 07 50.58   37503 0.9988 118.3 13.4 1190  67
2015 10 10 15  21 27 43.078   +01 38 15.82   46188 0.9988 126.4 13.6  555  65
2015 10 10 16  21 49 55.300   +03 35 03.59   53074 0.9989 132.1 13.7  272  62
2015 10 10 17  22 07 31.754   +05 05 57.97   58541 0.9989 136.6 13.8  125  57
2015 10 10 18  22 22 28.936   +06 21 27.05   62813 0.9989 140.3 13.9   44  45
2015 10 10 19  22 35 48.384   +07 27 03.71   66028 0.9989 143.6 13.9   11 139
2015 10 10 20  22 48 07.536   +08 26 06.90   68278 0.9990 146.6 13.9   24  76
2015 10 10 21  22 59 52.133   +09 20 47.64   69619 0.9990 149.5 13.8   28  59
2015 10 10 22  23 11 22.173   +10 12 40.27   70082 0.9990 152.2 13.8   20  28
2015 10 10 23  23 22 55.358   +11 02 59.24   69676 0.9990 154.9 13.7   25 136
2015 10 11 00  23 34 49.657   +11 52 49.43   68394 0.9990 157.6 13.6   62 104
2015 10 11 01  23 47 25.923   +12 43 13.78   66205 0.9989 160.4 13.4  123  94